This demonstration page uses our WeatherBlox Daily Observations layout. Learn more.

39.29038, -76.61219

Hourly Observations for October 7, 2015

Temp ( °F °C ) Dew Point ( °F °C ) Humidity (%) Winds ( mph kmh ) Pressure ( in mb ) Visibility ( mi km ) Precip ( " mm )
12:54 am 00:54 undefined 64 17.8 54 12.2 70 70 undefined N/A 29.99 1016 N/A 0 0
1:54 am 01:54 undefined 65 18.3 54 12.2 68 68 undefined N/A 29.99 1016 N/A 0 0
2:54 am 02:54 undefined 65 18.3 56 13.3 73 73 undefined N/A 29.99 1016 N/A 0 0
3:54 am 03:54 undefined 65 18.3 55 12.8 70 70 undefined N/A 29.99 1016 N/A 0 0
4:54 am 04:54 undefined 63 17.2 55 12.8 76 76 undefined N/A 29.99 1016 N/A 0 0
5:54 am 05:54 undefined 62 16.7 55 12.8 78 78 undefined N/A 30.01 1016 N/A 0 0
6:54 am 06:54 undefined 63 17.2 56 13.3 78 78 undefined N/A 30.01 1016 N/A 0 0
7:54 am 07:54 undefined 65 18.3 55 12.8 70 70 undefined N/A 30.03 1017 N/A 0 0
8:54 am 08:54 undefined 66 18.9 56 13.3 70 70 undefined N/A 30.04 1017 N/A 0 0
9:54 am 09:54 undefined 66 18.9 56 13.3 70 70 undefined N/A 30.06 1018 N/A 0 0
10:54 am 10:54 undefined 68 20 57 13.9 68 68 undefined N/A 30.06 1018 N/A 0 0
11:54 am 11:54 undefined 69 20.6 55 12.8 61 61 undefined N/A 30.05 1018 N/A 0 0
12:54 pm 12:54 undefined 72 22.2 57 13.9 59 59 undefined N/A 30.04 1017 N/A 0 0
1:54 pm 13:54 undefined 74 23.3 55 12.8 52 52 undefined N/A 30.03 1017 N/A 0 0
2:54 pm 14:54 undefined 75 23.9 54 12.2 48 48 undefined N/A 30 1016 N/A 0 0
3:54 pm 15:54 undefined 74 23.3 54 12.2 50 50 undefined N/A 29.99 1016 N/A 0 0
4:54 pm 16:54 undefined 75 23.9 54 12.2 48 48 undefined N/A 30 1016 N/A 0 0
5:54 pm 17:54 undefined 74 23.3 54 12.2 50 50 undefined N/A 30.01 1016 N/A 0 0
6:54 pm 18:54 undefined 72 22.2 55 12.8 55 55 undefined N/A 30.02 1017 N/A 0 0
7:54 pm 19:54 undefined 71 21.7 56 13.3 59 59 undefined N/A 30.04 1017 N/A 0 0
8:54 pm 20:54 undefined 70 21.1 56 13.3 61 61 undefined N/A 30.05 1018 N/A 0 0
9:54 pm 21:54 undefined 67 19.4 57 13.9 71 71 undefined N/A 30.06 1018 N/A 0 0
10:54 pm 22:54 undefined 66 18.9 57 13.9 73 73 undefined N/A 30.08 1019 N/A 0 0
11:54 pm 23:54 undefined 65 18.3 56 13.3 73 73 undefined N/A 30.08 1019 N/A 0 0

Powered by AerisWeather